Location: Bauladu
(40.0167°N, 8.6667°E)
Time: 07:36:22
(UTC+00:00)

Daily predictions for brighter satellites

Satellite Brightness Start Highest point End
(mag) Time Altitude Azimuth Time Altitude Azimuth Time Altitude Azimuth
Cosmos 2263 4.4 19:22:38 10° NNW 19:28:25 85° WSW 19:34:12 10° SSE
Okean O Rocket 4.4 19:28:28 10° SW 19:30:55 15° W 19:33:24 10° WNW
SL-14 R/B 3.4 19:28:09 10° S 19:32:00 82° W 19:35:56 10° N
Lacrosse 4 Rocket 3.9 19:28:36 10° WSW 19:32:10 28° NW 19:35:43 10° N
Cosmos 2056 Rocket 4.2 19:28:21 10° SSE 19:33:08 35° E 19:38:00 10° NE
Cosmos 1140 Rocket 4.0 19:28:17 10° N 19:33:16 45° ENE 19:38:11 10° SE
Cosmos 1943 4.1 19:29:23 10° SW 19:34:56 57° WNW 19:40:31 10° NNE
JB-3 4.4 19:32:13 10° N 19:36:07 81° WNW 19:39:58 10° SSW
Cosmos 1025 Rocket 4.0 19:34:10 10° SSE 19:37:45 27° E 19:41:24 10° NNE
MOS 1 4.5 19:33:32 10° SSE 19:39:07 61° ENE 19:44:44 10° N
Okean 1 Rocket 3.2 19:38:20 10° N 19:42:49 85° W 19:47:15 10° S
Cosmos 1455 Rocket 4.0 19:39:54 10° NNE 19:43:47 31° ENE 19:47:32 11° SE
Atlas Centaur 2 3.2 19:42:06 10° WSW 19:46:08 22° SSW 19:49:26 11° SE
Meteor 2-5 Rocket 3.9 19:48:33 10° SSE 19:53:51 50° E 19:59:11 10° NNE
Cosmos 1607 3.9 19:47:50 10° SSW 19:54:01 66° ESE 20:00:10 10° NE
SPOT 1/Viking Rocket 3.6 19:49:45 10° SSE 19:54:49 66° ENE 19:59:56 10° N
Ariane Rocket 3.2 19:53:00 10° SSE 19:58:00 59° ENE 20:03:01 10° N
Cosmos 1455 3.9 19:55:48 10° NNE 19:58:32 18° ENE 20:00:32 13° ESE
USA 267 3.8 19:56:52 10° ENE 20:02:41 33° SE 20:08:27 10° S
S3M 4.2 20:00:23 10° SSW 20:06:35 74° W 20:12:44 10° N
PSLV R/B 4.5 20:04:40 10° N 20:08:46 62° WNW 20:12:52 10° SSW
SPOT 5 3.9 20:07:10 15° ESE 20:09:58 27° ENE 20:13:37 10° NNE
Cosmos 1953 4.1 20:09:21 10° NNW 20:12:49 30° W 20:16:17 10° SSW
Meteor 2-10 Rocket 3.7 20:08:47 10° NNW 20:13:47 69° W 20:18:44 10° S
Cosmos 2369 Rocket 4.1 20:09:34 10° NW 20:13:59 24° WSW 20:18:26 10° SSW
Cosmos 1975 Rocket 3.1 20:09:34 10° S 20:14:02 89° ENE 20:18:30 10° N
H-2A R/B 3.2 20:11:09 10° N 20:15:23 48° WNW 20:19:40 10° SW
Tiangong 1.4 20:12:33 10° W 20:15:43 66° N 20:18:24 14° E
CARTOSAT-1 3.7 20:12:30 16° SSE 20:15:47 60° ENE 20:20:03 10° N
Longmarch 3A Rocket 4.0 20:17:01 10° S 20:17:44 11° S 20:17:44 11° S
Cosmos 2084 3.4 20:15:30 10° SW 20:19:20 74° NW 20:23:11 10° NNE
IRAS Rocket 4.2 20:16:34 10° NNE 20:22:12 87° ESE 20:27:46 10° SSW
USA 276 3.2 20:25:05 10° WSW 20:27:59 45° NNW 20:30:52 10° NE
Spot 2 Rocket 4.0 20:25:44 20° SE 20:28:55 47° ENE 20:33:48 10° N
Meteor 1-24 Rocket 3.6 20:26:11 10° S 20:31:28 86° W 20:36:54 10° N
MetOp-B 4.2 20:27:24 15° S 20:31:54 80° WSW 20:37:17 10° NNW
ATLAS 2AS CENTAUR R/B 3.0 20:26:28 10° NNW 20:33:25 56° NE 20:37:59 20° ESE
Cosmos 1452 Rocket 4.0 20:31:41 20° SSE 20:34:41 38° ESE 20:39:31 10° NE
Cosmos 1544 Rocket 3.6 20:31:23 10° N 20:35:40 59° E 20:37:54 26° SSE
Lacrosse 5 2.7 20:32:42 10° NNW 20:37:33 42° NE 20:40:57 18° ESE
Cosmos 1833 Rocket 3.7 20:36:05 23° SE 20:37:50 27° ESE 20:42:27 10° NE
X-37B 1.8 20:35:48 10° W 20:38:27 38° NNW 20:41:08 10° ENE
Terra 2.5 20:38:02 24° ESE 20:40:19 39° ENE 20:44:44 10° N
Resurs 01 Rocket 3.4 20:43:11 10° SSW 20:46:59 28° W 20:50:49 10° NW
Cosmos 2184 Rocket 4.4 20:42:45 10° N 20:48:41 47° ENE 20:51:50 26° SE
Cosmos 724 4.3 20:44:12 10° SSW 20:50:01 85° WNW 20:55:51 10° NNE
Helios 1A Rocket 2.8 20:51:31 35° SSE 20:53:09 74° ENE 20:57:14 10° N
CZ-4B R/B 4.2 20:55:57 10° NW 20:57:25 13° WNW 20:58:54 10° W
Lacrosse 5 rocket 1.2 20:56:50 10° NW 21:00:45 82° SW 21:01:56 45° SE
Cosmos 2082 Rocket 3.8 21:01:01 17° E 21:01:01 17° E 21:04:14 10° ENE
Cosmos 1271 Rocket 2.9 20:58:58 10° NNW 21:02:56 71° W 21:04:25 36° S
SPOT 3 Rocket 4.1 20:59:33 20° S 21:02:59 54° W 21:08:06 10° NNW
USA 102 3.8 21:04:51 51° WNW 21:04:51 51° WNW 21:13:44 10° NNW
ERS-1 Rocket 2.9 21:03:41 32° SSE 21:06:04 90° SW 21:11:09 10° NNW
NOSS 2-1 (E) 4.4 21:03:07 10° NNW 21:08:03 70° NE 21:11:18 31° SE
RESURS DK-1 3.6 21:08:31 10° N 21:12:09 29° ENE 21:13:07 26° E
CZ-2C R/B 3.9 21:14:14 10° N 21:18:48 69° WNW 21:21:17 26° SSW
ARIANE 5 R/B 2.6 21:18:10 47° SE 21:19:21 72° ENE 21:23:48 10° N
Cosmos 1741 Rocket 4.2 21:18:57 10° NNW 21:24:13 60° ENE 21:25:51 41° SE
GP-B 4.1 21:29:57 10° NNE 21:33:53 31° E 21:33:53 31° E
Cosmos 1455 3.9 21:30:46 10° NNW 21:33:58 26° W 21:35:18 21° WSW
Cosmos 2074 Rocket 4.1 21:31:01 10° NNW 21:37:15 69° W 21:40:08 33° SSW
COSMOS 2406 3.4 21:37:53 45° SE 21:38:58 52° ESE 21:44:33 10° NNE
ASTEX 1 3.6 21:37:15 10° NNE 21:42:09 53° E 21:42:45 50° ESE
USA 267 3.6 21:39:26 10° NE 21:45:55 68° NW 21:52:24 10° WSW
SPOT 5 4.3 21:46:23 21° SW 21:47:59 26° W 21:51:40 10° NW
Nadezhda 1 Rocket 4.0 21:47:09 34° SSW 21:49:58 73° W 21:56:03 10° N
Cosmos 2228 3.2 21:47:28 10° NNW 21:51:38 60° W 21:52:05 56° SW
Tiangong 3.3 21:49:28 10° W 21:50:37 20° W 21:50:37 20° W
Cosmos 1850 Rocket 4.0 21:49:10 10° NNW 21:54:20 69° WSW 21:55:21 54° SSW
Cosmos 1980 Rocket 3.3 21:49:38 10° N 21:54:48 34° ENE 21:56:37 28° E
Cosmos 1892 4.0 21:55:58 30° NE 21:55:58 30° NE 21:58:24 10° NNE
Cosmos 1606 Rocket 3.3 21:52:25 10° N 21:56:45 86° W 21:56:56 82° SSW
Cosmos 1697 Rocket 2.7 21:51:52 10° NNW 21:57:30 70° ENE 21:58:44 53° SE
Meteor 1-11 4.2 21:57:30 53° SE 21:58:24 61° E 22:03:55 10° NNE
BREEZE-M R/B 4.3 21:37:56 10° WNW 21:59:51 62° SW 22:02:12 42° SSE
Cosmos 2154 Rocket 4.2 21:55:55 10° NNW 22:02:03 63° W 22:04:14 40° SSW
Cosmos 1328 4.1 22:04:04 58° W 22:04:11 58° W 22:08:10 10° N
Cosmos 1656 4.2 22:01:37 10° NW 22:06:48 44° WSW 22:07:55 39° SW
Cosmos 1408 3.7 22:15:25 39° N 22:15:25 39° N 22:17:43 10° N
X-37B 3.1 22:11:50 10° WNW 22:12:58 19° NW 22:12:58 19° NW
USA 234 3.6 22:14:25 28° ESE 22:17:57 60° NE 22:24:24 10° NW
Terra 3.6 22:16:55 19° WSW 22:18:10 21° W 22:21:47 10° NW
Lacrosse 5 2.9 22:15:52 10° WNW 22:20:08 33° WSW 22:20:08 33° WSW
Cosmos 1726 Rocket 3.8 22:17:15 10° NNW 22:21:23 58° W 22:21:23 58° W
Cosmos 1833 Rocket 3.8 22:17:42 18° WSW 22:21:31 41° WNW 22:26:49 10° N
ATLAS 2AS CENTAUR R/B 3.8 22:18:10 10° NW 22:23:51 28° WSW 22:25:25 26° SW
ATLAS 5 CENTAUR R/B 3.6 22:30:26 15° ENE 22:30:26 15° ENE 22:31:21 10° NE
ALOS 2 3.3 22:32:45 46° ENE 22:32:45 46° ENE 22:36:43 10° N
SL-8 Rocket 3.9 22:26:20 10° N 22:32:36 86° E 22:33:46 62° SSE
Cosmos 1302 Rocket 4.2 22:31:56 54° WSW 22:32:51 65° WNW 22:38:02 10° NNE
Cosmos 2360 4.3 22:29:57 10° NNW 22:35:34 59° WSW 22:36:09 56° SW
Cosmos 1900 4.3 22:31:20 10° NNW 22:36:30 80° WSW 22:36:32 80° SW
Cosmos 2082 Rocket 2.4 22:42:49 49° WSW 22:44:13 66° WNW 22:49:55 10° NNE
Cosmos 1602 Rocket 4.4 22:45:32 41° NE 22:45:32 41° NE 22:48:48 10° NNE
Cosmos 2218 Rocket 3.9 22:38:16 10° N 22:44:43 89° E 22:45:53 63° S
Cosmos 2366 rocket 3.9 22:42:07 10° N 22:48:28 86° W 22:49:34 63° S
RESURS DK-1 4.3 22:46:43 10° NW 22:48:58 20° W 22:48:58 20° W
H-2A R/B 3.9 22:47:38 10° N 22:51:09 61° N 22:51:09 61° N
Spot 4 4.0 22:52:43 64° W 22:52:43 64° W 22:57:15 10° NNW
Cosmos 2341 Rocket 4.3 22:46:43 10° NNW 22:52:51 55° W 22:54:07 47° SW
Cosmos 2058 Rocket 3.9 22:51:19 10° NNW 22:55:04 42° WNW 22:55:04 42° WNW
Cosmos 1825 3.4 22:58:50 39° NNW 22:58:50 39° NNW 23:01:25 10° N
Cosmos 2360 Rocket 4.5 23:02:14 10° N 23:05:53 17° NE 23:09:32 10° E
ERS-2 3.7 23:03:51 10° NNE 23:05:53 32° NNE 23:05:53 32° NNE
Cosmos 968 Rocket 3.9 23:02:33 10° NNW 23:07:22 50° W 23:07:22 50° W
Cosmos-2242 3.8 23:04:53 10° N 23:08:16 44° NE 23:08:16 44° NE
Cosmos 1626 Rocket 4.2 23:10:22 49° NW 23:10:22 49° NW 23:14:04 10° N
SL-8 R/B 4.1 23:07:30 10° WNW 23:11:22 57° WNW 23:11:22 57° WNW
Cosmos 2058 4.3 23:16:21 33° ENE 23:16:21 33° ENE 23:19:14 10° NNE
Cosmos 1606 4.2 23:15:42 10° N 23:18:18 34° NE 23:18:18 34° NE
Meteor 1-27 4.5 23:15:03 10° NNW 23:20:25 52° W 23:20:39 52° WSW
ADEOS Rocket 3.4 23:20:28 56° SSW 23:21:59 70° WSW 23:29:32 10° NNW
Cosmos 1825 Rocket 4.4 23:22:58 44° NE 23:22:58 44° NE 23:26:16 10° NNE
Cosmos 1633 4.3 23:25:15 29° NNW 23:25:15 29° NNW 23:27:11 10° N
Celestis-02/Orion 38 4.4 23:25:38 84° W 23:25:38 84° W 23:30:42 10° NNW
SL-16 R/B 2.7 23:26:28 10° NNW 23:32:02 54° ENE 23:33:08 47° ESE
Meteor 2-20 4.4 23:32:15 61° SW 23:33:06 69° W 23:39:12 10° N
Cosmos 1980 Rocket 3.2 23:33:40 10° NW 23:38:21 33° W 23:38:21 33° W
SJ 16-02 2.1 23:35:11 10° N 23:39:13 45° ENE 23:39:13 45° ENE
Cosmos 1486 Rocket 4.2 23:34:49 10° NNW 23:39:34 58° W 23:39:34 58° W
Cosmos 1821 Rocket 4.0 23:39:02 10° NNW 23:45:12 64° W 23:45:54 60° SW
Cosmos 1340 Rocket 3.9 23:48:44 40° NE 23:48:44 40° NE 23:51:27 10° NNE
CZ-2D R/B 4.0 23:49:39 10° NE 23:52:52 16° E 23:53:35 16° ESE
